| time (UTC) | temp F | wind direction | speed MPH | gust MPH | rain 1hr in | rain 24hr in | rain mn in | humidity % | barometer mb |
| 20260503072530 | 37 | 213 | 5.0 | 10.0 | 0.00 | 0.13 | 0.00 | 75 | 1016.6 |
| 20260503072033 | 37 | 228 | 6.0 | 10.0 | 0.00 | 0.13 | 0.00 | 75 | 1016.6 |
| 20260503071629 | 37 | 245 | 5.0 | 11.0 | 0.00 | 0.13 | 0.00 | 75 | 1016.6 |
| 20260503071028 | 37 | 240 | 6.0 | 12.0 | 0.00 | 0.13 | 0.00 | 75 | 1016.6 |
| 20260503070529 | 37 | 228 | 6.0 | 13.0 | 0.00 | 0.13 | 0.00 | 76 | 1016.6 |
| 20260503055016 | 37 | 182 | 4.0 | 7.0 | 0.00 | 0.17 | 0.00 | 75 | 1016.8 |
| 20260503054527 | 37 | 211 | 4.0 | 8.0 | 0.00 | 0.17 | 0.00 | 75 | 1016.9 |
| 20260503054018 | 37 | 199 | 3.0 | 8.0 | 0.00 | 0.17 | 0.00 | 75 | 1016.9 |
| 20260503053515 | 37 | 194 | 4.0 | 8.0 | 0.00 | 0.17 | 0.00 | 75 | 1016.9 |
| 20260503053014 | 37 | 216 | 4.0 | 8.0 | 0.00 | 0.17 | 0.00 | 75 | 1016.9 |
| 20260503052512 | 37 | 220 | 5.0 | 8.0 | 0.00 | 0.17 | 0.00 | 74 | 1016.9 |
| 20260503052013 | 37 | 239 | 3.0 | 8.0 | 0.00 | 0.17 | 0.00 | 74 | 1016.9 |
| 20260503051511 | 37 | 185 | 4.0 | 8.0 | 0.00 | 0.17 | 0.00 | 74 | 1017.0 |
| 20260503051009 | 37 | 218 | 3.0 | 9.0 | 0.00 | 0.17 | 0.00 | 74 | 1017.0 |
| 20260503050508 | 38 | 240 | 3.0 | 9.0 | 0.00 | 0.17 | 0.00 | 73 | 1017.0 |
| 20260503050007 | 38 | 208 | 3.0 | 6.0 | 0.00 | 0.17 | 0.00 | 73 | 1017.0 |
| 20260503045506 | 38 | 218 | 4.0 | 7.0 | 0.00 | 0.24 | 0.00 | 73 | 1017.1 |
| 20260503045005 | 38 | 192 | 4.0 | 7.0 | 0.00 | 0.24 | 0.00 | 73 | 1017.1 |
| 20260503044511 | 38 | 234 | 3.0 | 6.0 | 0.00 | 0.24 | 0.00 | 73 | 1017.1 |
| 20260503044004 | 38 | 211 | 3.0 | 7.0 | 0.00 | 0.24 | 0.00 | 72 | 1017.1 |
| 20260503043503 | 39 | 218 | 3.0 | 9.0 | 0.00 | 0.24 | 0.00 | 72 | 1017.1 |
| 20260503043002 | 39 | 213 | 5.0 | 9.0 | 0.00 | 0.24 | 0.00 | 72 | 1017.0 |
| 20260503042503 | 39 | 221 | 3.0 | 9.0 | 0.00 | 0.24 | 0.00 | 71 | 1017.1 |
| 20260503042100 | 39 | 196 | 4.0 | 8.0 | 0.00 | 0.24 | 0.00 | 71 | 1017.1 |
| 20260503041600 | 39 | 196 | 4.0 | 8.0 | 0.00 | 0.24 | 0.00 | 71 | 1017.1 |
| 20260503041058 | 39 | 218 | 2.0 | 8.0 | 0.00 | 0.24 | 0.00 | 71 | 1017.2 |
| 20260503040557 | 40 | 201 | 4.0 | 7.0 | 0.00 | 0.24 | 0.00 | 71 | 1017.2 |
| 20260503040100 | 40 | 201 | 4.0 | 7.0 | 0.00 | 0.24 | 0.00 | 71 | 1017.2 |
| 20260503035658 | 40 | 202 | 4.0 | 7.0 | 0.00 | 0.26 | 0.24 | 71 | 1017.3 |
| 20260503035056 | 40 | 210 | 3.0 | 7.0 | 0.00 | 0.26 | 0.24 | 70 | 1017.2 |
| 20260503034609 | 40 | 188 | 3.0 | 8.0 | 0.00 | 0.26 | 0.24 | 70 | 1017.2 |
| 20260503034056 | 40 | 183 | 4.0 | 8.0 | 0.00 | 0.26 | 0.24 | 70 | 1017.3 |
| 20260503033557 | 40 | 173 | 3.0 | 8.0 | 0.00 | 0.26 | 0.24 | 69 | 1017.3 |
| 20260503033058 | 40 | 173 | 4.0 | 9.0 | 0.00 | 0.26 | 0.24 | 69 | 1017.3 |
| 20260503032554 | 40 | 208 | 4.0 | 9.0 | 0.00 | 0.26 | 0.24 | 69 | 1017.3 |
| 20260503032057 | 40 | 192 | 3.0 | 7.0 | 0.00 | 0.26 | 0.24 | 69 | 1017.4 |
| 20260503031556 | 40 | 203 | 4.0 | 7.0 | 0.00 | 0.26 | 0.24 | 69 | 1017.4 |
| 20260503031054 | 40 | 218 | 2.0 | 6.0 | 0.00 | 0.26 | 0.24 | 69 | 1017.5 |
| 20260503030553 | 40 | 210 | 2.0 | 5.0 | 0.00 | 0.26 | 0.24 | 69 | 1017.5 |
| 20260503030053 | 40 | 188 | 2.0 | 5.0 | 0.00 | 0.26 | 0.24 | 69 | 1017.4 |
| 20260503025553 | 40 | 185 | 3.0 | 5.0 | 0.00 | 0.26 | 0.24 | 69 | 1017.4 |
| 20260503025053 | 40 | 188 | 2.0 | 5.0 | 0.00 | 0.26 | 0.24 | 69 | 1017.5 |
| 20260503024554 | 40 | 213 | 2.0 | 6.0 | 0.00 | 0.26 | 0.24 | 69 | 1017.5 |
| 20260503024054 | 40 | 218 | 3.0 | 5.0 | 0.00 | 0.26 | 0.24 | 69 | 1017.6 |
| 20260503023553 | 40 | 223 | 2.0 | 4.0 | 0.00 | 0.26 | 0.24 | 69 | 1017.6 |
| 20260503023053 | 40 | 205 | 2.0 | 4.0 | 0.00 | 0.26 | 0.24 | 69 | 1017.7 |
| 20260503022552 | 40 | 192 | 2.0 | 4.0 | 0.00 | 0.26 | 0.24 | 68 | 1017.7 |
| 20260503022055 | 40 | 205 | 2.0 | 3.0 | 0.00 | 0.26 | 0.24 | 68 | 1017.7 |
| 20260503021552 | 40 | 196 | 2.0 | 3.0 | 0.00 | 0.26 | 0.24 | 68 | 1017.6 |
| 20260503021055 | 40 | 156 | 1.0 | 3.0 | 0.00 | 0.26 | 0.24 | 68 | 1017.7 |
| 20260503020552 | 40 | 181 | 2.0 | 3.0 | 0.00 | 0.26 | 0.24 | 68 | 1017.6 |
| 20260503020055 | 40 | 192 | 1.0 | 2.0 | 0.00 | 0.26 | 0.24 | 68 | 1017.6 |
| 20260503015551 | 40 | 173 | 1.0 | 3.0 | 0.00 | 0.26 | 0.24 | 68 | 1017.6 |
| 20260503015054 | 40 | 196 | 1.0 | 3.0 | 0.00 | 0.26 | 0.24 | 67 | 1017.6 |
| 20260503014604 | 40 | 218 | 1.0 | 2.0 | 0.00 | 0.26 | 0.24 | 67 | 1017.6 |
| 20260503014051 | 40 | 218 | 1.0 | 2.0 | 0.00 | 0.26 | 0.24 | 67 | 1017.5 |
| 20260503013551 | 40 | 188 | 0.0 | 2.0 | 0.00 | 0.26 | 0.24 | 67 | 1017.6 |
| 20260503013051 | 40 | 201 | 1.0 | 2.0 | 0.00 | 0.26 | 0.24 | 66 | 1017.6 |
| 20260503012552 | 40 | 173 | 1.0 | 2.0 | 0.00 | 0.26 | 0.24 | 66 | 1017.5 |
| 20260503012053 | 41 | 112 | 0.0 | 2.0 | 0.00 | 0.26 | 0.24 | 66 | 1017.5 |
| 20260503011551 | 41 | 147 | 0.0 | 2.0 | 0.00 | 0.26 | 0.24 | 65 | 1017.5 |
| 20260503011052 | 41 | 173 | 0.0 | 2.0 | 0.00 | 0.26 | 0.24 | 65 | 1017.5 |
| 20260503010549 | 41 | 147 | 0.0 | 2.0 | 0.00 | 0.26 | 0.24 | 64 | 1017.5 |
| 20260503010051 | 41 | 84 | 0.0 | 2.0 | 0.00 | 0.26 | 0.24 | 64 | 1017.4 |
| 20260503005550 | 41 | 130 | 0.0 | 2.0 | 0.00 | 0.26 | 0.24 | 64 | 1017.4 |
| 20260503005049 | 41 | 309 | 0.0 | 2.0 | 0.00 | 0.26 | 0.24 | 64 | 1017.5 |
| 20260503004549 | 41 | 173 | 0.0 | 2.0 | 0.00 | 0.26 | 0.24 | 64 | 1017.4 |
| 20260503004049 | 41 | 130 | 0.0 | 2.0 | 0.00 | 0.26 | 0.24 | 64 | 1017.4 |
| 20260503003548 | 41 | 41 | 0.0 | 3.0 | 0.00 | 0.26 | 0.24 | 64 | 1017.4 |
| 20260503003055 | 41 | 309 | 1.0 | 4.0 | 0.00 | 0.26 | 0.24 | 64 | 1017.4 |
| 20260503002547 | 41 | 356 | 1.0 | 4.0 | 0.00 | 0.26 | 0.24 | 64 | 1017.4 |
| 20260503002047 | 41 | 335 | 1.0 | 3.0 | 0.00 | 0.26 | 0.24 | 63 | 1017.4 |
| 20260503001606 | 41 | 309 | 1.0 | 3.0 | 0.00 | 0.26 | 0.24 | 63 | 1017.3 |
| 20260503001047 | 41 | 309 | 1.0 | 3.0 | 0.00 | 0.26 | 0.24 | 63 | 1017.4 |
| 20260503000546 | 41 | 326 | 1.0 | 3.0 | 0.00 | 0.26 | 0.24 | 62 | 1017.4 |
| 20260503000050 | 41 | 4 | 1.0 | 6.0 | 0.00 | 0.26 | 0.24 | 62 | 1017.3 |
| 20260502235546 | 42 | 335 | 2.0 | 6.0 | 0.00 | 0.26 | 0.24 | 62 | 1017.3 |
| 20260502235146 | 42 | 343 | 3.0 | 4.0 | 0.00 | 0.26 | 0.24 | 62 | 1017.3 |
| 20260502234549 | 42 | 326 | 1.0 | 6.0 | 0.00 | 0.26 | 0.24 | 61 | 1017.3 |
| 20260502234046 | 42 | 335 | 3.0 | 6.0 | 0.00 | 0.26 | 0.24 | 60 | 1017.2 |
| 20260502233546 | 42 | 15 | 2.0 | 6.0 | 0.00 | 0.26 | 0.24 | 60 | 1017.2 |
| 20260502233045 | 42 | 13 | 2.0 | 6.0 | 0.00 | 0.26 | 0.24 | 60 | 1017.2 |
| 20260502232544 | 42 | 331 | 1.0 | 6.0 | 0.00 | 0.26 | 0.24 | 60 | 1017.3 |
| 20260502232044 | 42 | 15 | 2.0 | 6.0 | 0.00 | 0.26 | 0.24 | 60 | 1017.3 |
| 20260502231545 | 42 | 330 | 3.0 | 8.0 | 0.00 | 0.26 | 0.24 | 60 | 1017.3 |
| 20260502231044 | 42 | 312 | 1.0 | 13.0 | 0.00 | 0.26 | 0.24 | 59 | 1017.3 |
| 20260502230544 | 42 | 329 | 5.0 | 13.0 | 0.00 | 0.26 | 0.24 | 59 | 1017.4 |
| 20260502230044 | 42 | 326 | 3.0 | 10.0 | 0.00 | 0.26 | 0.24 | 59 | 1017.4 |
| 20260502225543 | 42 | 326 | 7.0 | 10.0 | 0.00 | 0.26 | 0.24 | 59 | 1017.4 |
| 20260502225043 | 42 | 306 | 3.0 | 11.0 | 0.00 | 0.26 | 0.24 | 59 | 1017.4 |
| 20260502224543 | 42 | 347 | 4.0 | 11.0 | 0.00 | 0.26 | 0.24 | 59 | 1017.3 |
| 20260502224045 | 42 | 13 | 4.0 | 11.0 | 0.00 | 0.26 | 0.24 | 59 | 1017.4 |
| 20260502223544 | 42 | 336 | 5.0 | 10.0 | 0.00 | 0.26 | 0.24 | 60 | 1017.4 |
| 20260502223043 | 42 | 356 | 5.0 | 10.0 | 0.00 | 0.26 | 0.24 | 62 | 1017.4 |
| 20260502222543 | 42 | 324 | 2.0 | 9.0 | 0.00 | 0.26 | 0.24 | 63 | 1017.4 |
| 20260502222044 | 42 | 344 | 3.0 | 8.0 | 0.00 | 0.26 | 0.24 | 63 | 1017.4 |
| 20260502221545 | 42 | 335 | 1.0 | 12.0 | 0.00 | 0.26 | 0.24 | 64 | 1017.4 |
| 20260502221042 | 42 | 326 | 4.0 | 12.0 | 0.00 | 0.26 | 0.24 | 64 | 1017.5 |
| 20260502220542 | 42 | 356 | 5.0 | 11.0 | 0.00 | 0.26 | 0.24 | 65 | 1017.5 |
| 20260502220042 | 42 | 299 | 2.0 | 10.0 | 0.00 | 0.26 | 0.24 | 64 | 1017.6 |
| 20260502215542 | 42 | 279 | 1.0 | 8.0 | 0.00 | 0.26 | 0.24 | 65 | 1017.5 |
| 20260502215041 | 42 | 306 | 3.0 | 9.0 | 0.00 | 0.26 | 0.24 | 65 | 1017.4 |
| 20260502214549 | 41 | 326 | 3.0 | 6.0 | 0.00 | 0.26 | 0.24 | 66 | 1017.4 |
| 20260502214041 | 41 | 341 | 3.0 | 7.0 | 0.00 | 0.26 | 0.24 | 65 | 1017.4 |
| 20260502213544 | 41 | 346 | 4.0 | 10.0 | 0.00 | 0.26 | 0.24 | 65 | 1017.5 |
| 20260502213042 | 41 | 311 | 3.0 | 10.0 | 0.00 | 0.26 | 0.24 | 65 | 1017.4 |
| 20260502212540 | 41 | 339 | 2.0 | 8.0 | 0.00 | 0.26 | 0.24 | 65 | 1017.4 |
| 20260502212040 | 41 | 345 | 3.0 | 9.0 | 0.00 | 0.26 | 0.24 | 64 | 1017.3 |
| 20260502211540 | 42 | 342 | 4.0 | 10.0 | 0.00 | 0.26 | 0.24 | 64 | 1017.3 |
| 20260502211039 | 42 | 311 | 5.0 | 13.0 | 0.00 | 0.26 | 0.24 | 64 | 1017.3 |
| 20260502210539 | 42 | 341 | 7.0 | 13.0 | 0.00 | 0.26 | 0.24 | 63 | 1017.4 |
| 20260502210044 | 42 | 345 | 4.0 | 10.0 | 0.00 | 0.26 | 0.24 | 63 | 1017.4 |
| 20260502205638 | 42 | 333 | 4.0 | 10.0 | 0.00 | 0.26 | 0.24 | 62 | 1017.4 |
| 20260502205041 | 43 | 299 | 4.0 | 16.0 | 0.00 | 0.26 | 0.24 | 62 | 1017.3 |
| 20260502204542 | 43 | 316 | 4.0 | 12.0 | 0.00 | 0.26 | 0.24 | 61 | 1017.3 |
| 20260502204038 | 43 | 356 | 6.0 | 12.0 | 0.00 | 0.26 | 0.24 | 61 | 1017.3 |
| 20260502203539 | 43 | 314 | 5.0 | 12.0 | 0.00 | 0.26 | 0.24 | 61 | 1017.3 |
| 20260502203039 | 43 | 314 | 4.0 | 12.0 | 0.00 | 0.26 | 0.24 | 60 | 1017.3 |
| 20260502202537 | 43 | 313 | 5.0 | 16.0 | 0.00 | 0.26 | 0.24 | 59 | 1017.3 |
| 20260502202037 | 44 | 307 | 3.0 | 16.0 | 0.00 | 0.26 | 0.24 | 58 | 1017.3 |
| 20260502201538 | 44 | 36 | 6.0 | 11.0 | 0.00 | 0.26 | 0.24 | 60 | 1017.4 |
| 20260502201036 | 44 | 264 | 4.0 | 10.0 | 0.00 | 0.26 | 0.24 | 58 | 1017.4 |
| 20260502200536 | 44 | 288 | 5.0 | 11.0 | 0.00 | 0.26 | 0.24 | 58 | 1017.4 |
| 20260502200036 | 44 | 334 | 5.0 | 14.0 | 0.00 | 0.26 | 0.24 | 58 | 1017.4 |
| 20260502195535 | 44 | 8 | 5.0 | 12.0 | 0.00 | 0.26 | 0.24 | 57 | 1017.4 |
| 20260502195037 | 44 | 335 | 3.0 | 11.0 | 0.00 | 0.26 | 0.24 | 56 | 1017.4 |
| 20260502194537 | 44 | 252 | 4.0 | 18.0 | 0.00 | 0.26 | 0.24 | 55 | 1017.4 |
| 20260502194033 | 44 | 312 | 8.0 | 18.0 | 0.00 | 0.26 | 0.24 | 56 | 1017.5 |
| 20260502193632 | 44 | 342 | 7.0 | 17.0 | 0.00 | 0.26 | 0.24 | 56 | 1017.5 |
| 20260502193035 | 44 | 337 | 4.0 | 21.0 | 0.00 | 0.26 | 0.24 | 56 | 1017.5 |
| 20260502192531 | 44 | 272 | 5.0 | 21.0 | 0.00 | 0.26 | 0.24 | 56 | 1017.6 |
| 20260502192033 | 44 | 341 | 6.0 | 13.0 | 0.00 | 0.26 | 0.24 | 58 | 1017.6 |
| 20260502191531 | 44 | 10 | 4.0 | 14.0 | 0.00 | 0.26 | 0.24 | 58 | 1017.6 |
| 20260502191030 | 44 | 4 | 7.0 | 14.0 | 0.00 | 0.26 | 0.24 | 58 | 1017.7 |
| 20260502190530 | 44 | 351 | 4.0 | 11.0 | 0.00 | 0.26 | 0.24 | 59 | 1017.7 |
| 20260502190030 | 44 | 335 | 6.0 | 12.0 | 0.00 | 0.26 | 0.24 | 58 | 1017.7 |
| 20260502185533 | 45 | 341 | 5.0 | 12.0 | 0.00 | 0.28 | 0.24 | 60 | 1017.7 |
| 20260502185029 | 44 | 331 | 2.0 | 14.0 | 0.00 | 0.28 | 0.24 | 59 | 1017.7 |
| 20260502184550 | 44 | 84 | 5.0 | 19.0 | 0.00 | 0.28 | 0.24 | 56 | 1017.9 |
| 20260502184028 | 45 | 335 | 8.0 | 19.0 | 0.00 | 0.28 | 0.24 | 56 | 1017.8 |
| 20260502183527 | 44 | 48 | 4.0 | 14.0 | 0.00 | 0.28 | 0.24 | 59 | 1017.8 |
| 20260502183026 | 44 | 22 | 7.0 | 13.0 | 0.00 | 0.28 | 0.24 | 58 | 1017.9 |
| 20260502182524 | 44 | 18 | 6.0 | 11.0 | 0.00 | 0.28 | 0.24 | 58 | 1017.9 |
| 20260502182024 | 44 | 356 | 6.0 | 16.0 | 0.00 | 0.28 | 0.24 | 57 | 1017.9 |
| 20260502181529 | 44 | 316 | 4.0 | 16.0 | 0.00 | 0.28 | 0.24 | 59 | 1017.9 |
| 20260502181026 | 44 | 28 | 7.0 | 13.0 | 0.00 | 0.28 | 0.24 | 59 | 1018.0 |
| 20260502180526 | 43 | 39 | 5.0 | 15.0 | 0.00 | 0.28 | 0.24 | 60 | 1017.9 |
| 20260502170511 | 41 | 84 | 4.0 | 14.0 | 0.00 | 0.31 | 0.24 | 68 | 1018.1 |
| 20260502164004 | 39 | 318 | 6.0 | 12.0 | 0.00 | 0.34 | 0.24 | 73 | 1018.4 |
| 20260502163503 | 39 | 23 | 5.0 | 12.0 | 0.00 | 0.34 | 0.24 | 75 | 1018.4 |
| 20260502163002 | 39 | 298 | 4.0 | 12.0 | 0.00 | 0.34 | 0.24 | 76 | 1018.4 |
| 20260502162501 | 39 | 324 | 6.0 | 11.0 | 0.00 | 0.34 | 0.24 | 77 | 1018.4 |
| 20260502162059 | 38 | 316 | 3.0 | 11.0 | 0.00 | 0.34 | 0.24 | 78 | 1018.4 |
| 20260502161559 | 38 | 1 | 5.0 | 10.0 | 0.00 | 0.34 | 0.24 | 80 | 1018.4 |
| 20260502161058 | 38 | 3 | 4.0 | 13.0 | 0.00 | 0.34 | 0.24 | 80 | 1018.4 |
| 20260502160557 | 38 | 18 | 6.0 | 13.0 | 0.00 | 0.34 | 0.24 | 82 | 1018.4 |
| 20260502152051 | 36 | 30 | 5.0 | 11.0 | 0.00 | 0.44 | 0.24 | 86 | 1018.1 |
| 20260502151600 | 36 | 356 | 4.0 | 8.0 | 0.00 | 0.44 | 0.24 | 86 | 1018.2 |
| 20260502151050 | 36 | 15 | 4.0 | 8.0 | 0.00 | 0.44 | 0.24 | 86 | 1018.2 |
| 20260502150550 | 36 | 11 | 3.0 | 7.0 | 0.00 | 0.44 | 0.24 | 87 | 1018.1 |
| 20260502150103 | 36 | 345 | 3.0 | 7.0 | 0.00 | 0.44 | 0.24 | 87 | 1018.1 |
| 20260502130549 | 34 | 346 | 4.0 | 8.0 | 0.02 | 0.48 | 0.24 | 88 | 1017.3 |
| 20260502123545 | 36 | 36 | 2.0 | 5.0 | 0.00 | 0.48 | 0.22 | 88 | 1017.3 |
| 20260502123058 | 36 | 46 | 2.0 | 5.0 | 0.00 | 0.48 | 0.22 | 88 | 1017.4 |
| 20260502122543 | 35 | 41 | 2.0 | 4.0 | 0.00 | 0.48 | 0.22 | 88 | 1017.3 |
| 20260502122042 | 35 | 46 | 2.0 | 5.0 | 0.00 | 0.48 | 0.22 | 88 | 1017.1 |
| 20260502121542 | 35 | 71 | 2.0 | 5.0 | 0.00 | 0.48 | 0.22 | 88 | 1017.1 |
| 20260502121041 | 35 | 48 | 1.0 | 4.0 | 0.00 | 0.48 | 0.22 | 88 | 1017.0 |
| 20260502120540 | 35 | 90 | 2.0 | 6.0 | 0.00 | 0.48 | 0.22 | 88 | 1016.9 |
| 20260502115540 | 35 | 27 | 2.0 | 6.0 | 0.01 | 0.48 | 0.22 | 88 | 1016.9 |
| 20260502115039 | 35 | 76 | 2.0 | 7.0 | 0.01 | 0.48 | 0.22 | 88 | 1016.8 |
| 20260502114544 | 35 | 96 | 2.0 | 7.0 | 0.01 | 0.48 | 0.22 | 88 | 1016.8 |
| 20260502114041 | 35 | 84 | 2.0 | 4.0 | 0.01 | 0.48 | 0.22 | 88 | 1016.8 |
| 20260502113537 | 35 | 103 | 1.0 | 4.0 | 0.01 | 0.48 | 0.22 | 88 | 1016.7 |
| 20260502113043 | 35 | 112 | 1.0 | 5.0 | 0.02 | 0.48 | 0.22 | 88 | 1016.7 |
| 20260502112537 | 35 | 58 | 1.0 | 5.0 | 0.02 | 0.48 | 0.22 | 88 | 1016.7 |
| 20260502112035 | 35 | 108 | 2.0 | 5.0 | 0.04 | 0.48 | 0.22 | 87 | 1016.7 |
| 20260502111542 | 35 | 84 | 2.0 | 5.0 | 0.04 | 0.48 | 0.22 | 87 | 1016.8 |
| 20260502111034 | 34 | 108 | 2.0 | 5.0 | 0.05 | 0.48 | 0.22 | 87 | 1016.8 |
| 20260502110533 | 34 | 67 | 2.0 | 5.0 | 0.05 | 0.48 | 0.22 | 87 | 1016.7 |
| 20260502110037 | 34 | 84 | 2.0 | 5.0 | 0.05 | 0.47 | 0.21 | 87 | 1016.7 |
| 20260502105533 | 34 | 95 | 2.0 | 3.0 | 0.05 | 0.47 | 0.21 | 87 | 1016.7 |
| 20260502105032 | 34 | 115 | 2.0 | 5.0 | 0.05 | 0.47 | 0.21 | 87 | 1016.6 |
| 20260502104537 | 34 | 108 | 3.0 | 5.0 | 0.05 | 0.47 | 0.21 | 87 | 1016.5 |
| 20260502104032 | 34 | 67 | 1.0 | 6.0 | 0.06 | 0.47 | 0.21 | 87 | 1016.5 |
| 20260502103530 | 34 | 100 | 3.0 | 6.0 | 0.07 | 0.47 | 0.21 | 87 | 1016.4 |
| 20260502103029 | 35 | 62 | 2.0 | 4.0 | 0.06 | 0.46 | 0.20 | 87 | 1016.4 |
| 20260502102529 | 35 | 93 | 2.0 | 4.0 | 0.07 | 0.46 | 0.20 | 87 | 1016.3 |
| 20260502102028 | 35 | 84 | 0.0 | 4.0 | 0.05 | 0.44 | 0.18 | 87 | 1016.3 |
| 20260502101528 | 35 | 74 | 2.0 | 4.0 | 0.06 | 0.44 | 0.18 | 87 | 1016.3 |
| 20260502101026 | 35 | 84 | 1.0 | 3.0 | 0.05 | 0.43 | 0.17 | 87 | 1016.3 |
| 20260502100530 | 35 | 122 | 0.0 | 5.0 | 0.05 | 0.43 | 0.17 | 87 | 1016.3 |
| 20260502091521 | 36 | 116 | 1.0 | 3.0 | 0.01 | 0.38 | 0.12 | 87 | 1015.8 |
| 20260502091020 | 36 | 41 | 1.0 | 4.0 | 0.01 | 0.38 | 0.12 | 87 | 1016.0 |
| 20260502090522 | 36 | 23 | 1.0 | 4.0 | 0.01 | 0.38 | 0.12 | 87 | 1016.0 |